DELTA 4 R/B, 39742

Orbit data source: Space-Track

DELTA 4 R/B, 39742 is space debris in MEO originally from a launch on Sat, 17 May 2014 UTC launched from the Air Force Eastern Test Range (AFETR). Debris objects in space refer to the collection of defunct objects orbiting the Earth. Examples of debris include non-operational satellites, rocket bodies, and fragments generated from explosions, collisions, or faulty payload assembly.

Loading next visibility...
DELTA 4 R/B details
Identifier
39742, 2014-026B
Orbit
MEO
Last TLE update1 day ago
Origin
Flag of USULA (US)
ManufacturerULA Decatur
Mission2))"
Bus & MotorDCSS-4, RL10B-2
Mass2,850 kg wet, 2,850 kg dry
Launch date (UTC)
2014-05-17 (11 years ago)
Launch vehicleUnknown
Launch site
Air Force Eastern Test Range (AFETR)
Object type
Payload
Rocket body
Debris
Shape & HBRCyl + 1 Nozzle, Unknown HBR
Radar Cross Section43.982 m², Large (>1 m²)

Expand to show TLE details & history

TLE from 1 day ago
0 DELTA 4 R/B
1 39742U 14026B   24360.38383583 -.00000078  00000-0  00000-0 0  9990
2 39742  56.7145   2.3848 0013184 121.4759 238.6858  1.93899005 72627
Epoch: 2024-12-25T09:12Z
Definitive object data (Epoch: 2024-12-25T09:12:43.415Z)
Latitude-0°
Longitude129.8279°
Altitude20,806.323 km
Speed3.828 km/s
True Right ascension00h 09m 32s
True Declination0° 00' 00"
Sunlit
Object was in daylight at TLE epoch
Visualization TLE readout
Latitude56.48397°
Longitude-148.16863°
Altitude20,766.676 km
Speed3.835 km/s
Apparent Right ascension04h 29m 38s
Apparent Declination48° 15' 51"
Sunlit
Object is in daylight
Visualization observer readout
Local Sidereal Time12:16:04
Azimuth322.067° NNW
Elevation14.486°
Doppler factor1
Orbital elements
Apogee altitude20,823.143 km
Perigee altitude20,751.513 km
Semi-major axis27,165.465 km
Eccentricity0.0013184
Inclination56.7145°
RAAN2.3848°
Arg. of periapsis121.4759°
True anomaly238.55684°
Mean anomaly238.6858°
Eccentric anomaly238.62131°
Mean motion0.48475 °/min
BSTARUnknown
Orbital period742.65 mins
Loading maneuver chart data...

DELTA 4 R/B Visibility forecast

Observer location: undefined°, undefined

Span
Click to sort rows by Start time (UTC) header in descending order
Start Az.
Max El. time (UTC)
Max El. Az.
Max El.
End time (UTC)
End Az.
213 mins2024-12-26 12:54:28.707Z322.052° NNW2024-12-26 14:32:28.707Z285.724° WNW30.181°2024-12-26 16:27:28.707Z236.137° WSW
269 mins2024-12-26 21:37:28.707Z142.783° SSE2024-12-26 23:53:28.707Z82.787° E36.665°2024-12-27 02:06:28.707Z41.012° NE
|